TVJ225 VTUU-VTBS

Flight info

Callsign TVJ225
Flight time 0h 43m
Altitude 32000
Route ASABO1A ASABO Y20 GRASO Y13 RUKSA EASTE1C
Aircraft B38M/M-SDE1FGHILORVWXY/HB1

Departure

Time 2026-05-07 11:10
Airport Ubon Ratchathani Airport (VTUU)

Arrival

Time 2026-05-07 11:53
Airport Suvarnabhumi Airport (VTBS)
Time Latitude Longitude Altitude Speed Heading
2026-05-07 10:38 15.24767 104.87038 408 ft 0 kts 141°
2026-05-07 11:01 15.24772 104.87033 408 ft 2 kts 141°
2026-05-07 11:01 15.24785 104.87022 402 ft 2 kts 142°
2026-05-07 11:02 15.24795 104.87009 409 ft 2 kts 108°
2026-05-07 11:02 15.24799 104.86993 409 ft 2 kts 91°
2026-05-07 11:02 15.24797 104.86977 407 ft 1 kts 68°
2026-05-07 11:02 15.24796 104.86973 407 ft 0 kts 59°
2026-05-07 11:04 15.24801 104.86979 408 ft 3 kts 50°
2026-05-07 11:04 15.24830 104.87008 408 ft 8 kts 26°
2026-05-07 11:05 15.24886 104.86998 409 ft 9 kts 322°
2026-05-07 11:05 15.24941 104.86952 409 ft 11 kts 320°
2026-05-07 11:05 15.25004 104.86901 409 ft 10 kts 342°
2026-05-07 11:05 15.25056 104.86930 409 ft 10 kts 55°
2026-05-07 11:06 15.25097 104.86992 409 ft 12 kts 55°
2026-05-07 11:06 15.25156 104.87074 410 ft 17 kts 51°
2026-05-07 11:06 15.25239 104.87182 410 ft 20 kts 52°
2026-05-07 11:06 15.25329 104.87298 411 ft 21 kts 51°
2026-05-07 11:07 15.25423 104.87418 408 ft 22 kts 51°
2026-05-07 11:07 15.25524 104.87548 406 ft 24 kts 51°
2026-05-07 11:07 15.25629 104.87687 416 ft 25 kts 53°
2026-05-07 11:07 15.25739 104.87840 410 ft 27 kts 53°
2026-05-07 11:08 15.25854 104.87987 409 ft 20 kts 51°
2026-05-07 11:08 15.25891 104.88081 409 ft 12 kts 64°
2026-05-07 11:08 15.25925 104.88121 409 ft 5 kts
2026-05-07 11:08 15.25941 104.88099 409 ft 4 kts 271°
2026-05-07 11:09 15.25923 104.88067 409 ft 7 kts 230°
2026-05-07 11:09 15.25811 104.87922 409 ft 60 kts 232°
2026-05-07 11:09 15.25405 104.87381 409 ft 131 kts 231°
2026-05-07 11:09 15.24696 104.86492 486 ft 182 kts 233°
2026-05-07 11:10 15.23851 104.85441 1126 ft 196 kts 231°
2026-05-07 11:10 15.23032 104.84333 2154 ft 184 kts 232°
2026-05-07 11:10 15.22224 104.83241 2790 ft 202 kts 231°
2026-05-07 11:10 15.21309 104.82038 3274 ft 223 kts 231°
2026-05-07 11:11 15.20294 104.80716 3783 ft 243 kts 231°
2026-05-07 11:11 15.19221 104.79326 4564 ft 250 kts 231°
2026-05-07 11:11 15.18121 104.77908 5412 ft 255 kts 230°
2026-05-07 11:11 15.16995 104.76459 6199 ft 261 kts 230°
2026-05-07 11:12 15.15847 104.74983 7023 ft 265 kts 230°
2026-05-07 11:12 15.14682 104.73487 7816 ft 269 kts 230°
2026-05-07 11:12 15.13497 104.71966 8616 ft 274 kts 230°
2026-05-07 11:12 15.12297 104.70424 9439 ft 277 kts 230°
2026-05-07 11:13 15.11295 104.68672 9947 ft 294 kts 252°
2026-05-07 11:13 15.11105 104.66522 10320 ft 312 kts 278°
2026-05-07 11:13 15.11710 104.64313 10716 ft 328 kts 288°
2026-05-07 11:13 15.12399 104.62013 11213 ft 339 kts 287°
2026-05-07 11:14 15.13087 104.59673 11969 ft 341 kts 287°
2026-05-07 11:14 15.13780 104.57306 12677 ft 346 kts 287°
2026-05-07 11:14 15.14479 104.54914 13418 ft 349 kts 287°
2026-05-07 11:14 15.15185 104.52497 14069 ft 353 kts 287°
2026-05-07 11:15 15.15896 104.50057 14727 ft 356 kts 287°
2026-05-07 11:15 15.16615 104.47593 15353 ft 359 kts 287°
2026-05-07 11:15 15.17339 104.45105 15996 ft 362 kts 287°
2026-05-07 11:15 15.18068 104.42605 16649 ft 364 kts 287°
2026-05-07 11:16 15.18791 104.40120 17220 ft 368 kts 287°
2026-05-07 11:16 15.19533 104.37572 17815 ft 371 kts 287°
2026-05-07 11:16 15.20070 104.34956 18331 ft 374 kts 271°
2026-05-07 11:16 15.19945 104.32232 18833 ft 376 kts 265°
2026-05-07 11:17 15.19759 104.29552 19275 ft 379 kts 265°
2026-05-07 11:17 15.19550 104.26787 19774 ft 382 kts 265°
2026-05-07 11:17 15.19329 104.24036 20240 ft 385 kts 265°
2026-05-07 11:17 15.19100 104.21270 20701 ft 387 kts 265°
2026-05-07 11:18 15.18869 104.18518 21142 ft 390 kts 265°
2026-05-07 11:18 15.18632 104.15707 21578 ft 394 kts 265°
2026-05-07 11:18 15.18392 104.12876 22010 ft 397 kts 265°
2026-05-07 11:18 15.18150 104.10025 22447 ft 399 kts 265°
2026-05-07 11:19 15.17906 104.07154 22879 ft 402 kts 265°
2026-05-07 11:19 15.17661 104.04268 23305 ft 404 kts 265°
2026-05-07 11:19 15.17412 104.01356 23661 ft 407 kts 265°
2026-05-07 11:19 15.17163 103.98433 24020 ft 409 kts 265°
2026-05-07 11:20 15.16912 103.95501 24379 ft 410 kts 265°
2026-05-07 11:20 15.16659 103.92551 24735 ft 412 kts 265°
2026-05-07 11:20 15.16405 103.89588 25092 ft 414 kts 265°
2026-05-07 11:20 15.16150 103.86615 25439 ft 416 kts 265°
2026-05-07 11:21 15.15893 103.83626 25760 ft 419 kts 265°
2026-05-07 11:21 15.15634 103.80611 26070 ft 422 kts 265°
2026-05-07 11:21 15.15094 103.77625 26405 ft 424 kts 251°
2026-05-07 11:21 15.14144 103.74736 26756 ft 425 kts 252°
2026-05-07 11:22 15.13227 103.71816 27080 ft 428 kts 252°
2026-05-07 11:22 15.12292 103.68887 27404 ft 430 kts 252°
2026-05-07 11:22 15.11345 103.65947 27714 ft 432 kts 252°
2026-05-07 11:22 15.10392 103.62997 28069 ft 433 kts 252°
2026-05-07 11:23 15.09435 103.60036 28402 ft 435 kts 252°
2026-05-07 11:23 15.08473 103.57063 28675 ft 438 kts 252°
2026-05-07 11:23 15.07502 103.54065 28982 ft 440 kts 252°
2026-05-07 11:23 15.06530 103.51063 29320 ft 441 kts 252°
2026-05-07 11:24 15.05553 103.48050 29612 ft 443 kts 252°
2026-05-07 11:24 15.04570 103.45013 29838 ft 446 kts 252°
2026-05-07 11:24 15.03581 103.41967 30112 ft 447 kts 252°
2026-05-07 11:24 15.02590 103.38913 30390 ft 448 kts 252°
2026-05-07 11:25 15.01598 103.35856 30646 ft 449 kts 252°
2026-05-07 11:25 15.00603 103.32792 30906 ft 450 kts 252°
2026-05-07 11:25 14.99604 103.29720 31164 ft 451 kts 252°
2026-05-07 11:25 14.98603 103.26640 31416 ft 452 kts 252°
2026-05-07 11:26 14.97600 103.23558 31684 ft 453 kts 252°
2026-05-07 11:26 14.96594 103.20468 31828 ft 453 kts 252°
2026-05-07 11:26 14.93852 103.12056 31821 ft 450 kts 252°
2026-05-07 11:27 14.89878 102.99853 31830 ft 452 kts 252°
2026-05-07 11:27 14.85888 102.87462 31828 ft 451 kts 254°
2026-05-07 11:28 14.82154 102.75181 31834 ft 451 kts 252°
2026-05-07 11:28 14.78332 102.62812 31837 ft 452 kts 253°
2026-05-07 11:29 14.75121 102.52356 31837 ft 452 kts 253°
2026-05-07 11:29 14.73210 102.46174 31840 ft 452 kts 253°
2026-05-07 11:30 14.71301 102.39993 31848 ft 452 kts 253°
2026-05-07 11:30 14.69393 102.33821 31842 ft 451 kts 253°
2026-05-07 11:31 14.67485 102.27654 31843 ft 451 kts 253°
2026-05-07 11:31 14.65576 102.21490 31843 ft 451 kts 253°
2026-05-07 11:32 14.63727 102.15531 31683 ft 424 kts 253°
2026-05-07 11:32 14.62832 102.12644 31272 ft 420 kts 253°
2026-05-07 11:32 14.61940 102.09770 30709 ft 422 kts 253°
2026-05-07 11:33 14.61042 102.06883 30171 ft 423 kts 252°
2026-05-07 11:33 14.60146 102.03997 29670 ft 422 kts 252°
2026-05-07 11:33 14.59251 102.01118 29150 ft 420 kts 252°
2026-05-07 11:33 14.58361 101.98258 28684 ft 417 kts 252°
2026-05-07 11:34 14.57478 101.95420 28238 ft 414 kts 252°
2026-05-07 11:34 14.56596 101.92600 27791 ft 411 kts 251°
2026-05-07 11:34 14.55510 101.89874 27277 ft 411 kts 247°
2026-05-07 11:34 14.54405 101.87175 26882 ft 405 kts 247°
2026-05-07 11:35 14.53330 101.84513 26495 ft 399 kts 247°
2026-05-07 11:35 14.52277 101.81884 26066 ft 394 kts 248°
2026-05-07 11:35 14.51241 101.79287 25663 ft 389 kts 248°
2026-05-07 11:35 14.50215 101.76716 25275 ft 385 kts 247°
2026-05-07 11:36 14.49201 101.74176 24879 ft 381 kts 247°
2026-05-07 11:36 14.48196 101.71657 24497 ft 379 kts 247°
2026-05-07 11:36 14.47193 101.69145 24115 ft 378 kts 247°
2026-05-07 11:36 14.46196 101.66646 23728 ft 376 kts 247°
2026-05-07 11:37 14.45199 101.64152 23327 ft 375 kts 247°
2026-05-07 11:37 14.44208 101.61670 22884 ft 374 kts 247°
2026-05-07 11:37 14.43220 101.59201 22489 ft 371 kts 247°
2026-05-07 11:37 14.42240 101.56751 22115 ft 368 kts 247°
2026-05-07 11:38 14.41270 101.54325 21747 ft 365 kts 247°
2026-05-07 11:38 14.40630 101.52724 21502 ft 363 kts 247°
2026-05-07 11:38 14.39350 101.49527 21016 ft 359 kts 247°
2026-05-07 11:38 14.38412 101.47186 20661 ft 356 kts 247°
2026-05-07 11:39 14.37469 101.44832 20292 ft 354 kts 247°
2026-05-07 11:39 14.36534 101.42499 19945 ft 352 kts 247°
2026-05-07 11:39 14.35603 101.40175 19590 ft 349 kts 247°
2026-05-07 11:39 14.34679 101.37871 19235 ft 347 kts 247°
2026-05-07 11:40 14.34056 101.36318 19002 ft 346 kts 247°
2026-05-07 11:40 14.32844 101.33295 18518 ft 344 kts 247°
2026-05-07 11:40 14.31932 101.31023 18199 ft 341 kts 247°
2026-05-07 11:40 14.31007 101.28779 17721 ft 341 kts 242°
2026-05-07 11:41 14.29711 101.26715 17191 ft 343 kts 234°
2026-05-07 11:41 14.28812 101.25381 16906 ft 343 kts 234°
2026-05-07 11:41 14.27441 101.23328 16429 ft 343 kts 234°
2026-05-07 11:41 14.26105 101.21323 15959 ft 345 kts 234°
2026-05-07 11:42 14.24744 101.19281 15454 ft 346 kts 234°
2026-05-07 11:42 14.23380 101.17236 14952 ft 346 kts 234°
2026-05-07 11:42 14.22020 101.15195 14445 ft 345 kts 234°
2026-05-07 11:42 14.20660 101.13156 13948 ft 345 kts 234°
2026-05-07 11:43 14.19303 101.11121 13421 ft 345 kts 234°
2026-05-07 11:43 14.17945 101.09086 12860 ft 344 kts 234°
2026-05-07 11:43 14.16593 101.07060 12346 ft 342 kts 234°
2026-05-07 11:43 14.15250 101.05047 11877 ft 339 kts 234°
2026-05-07 11:44 14.13920 101.03056 11468 ft 335 kts 234°
2026-05-07 11:44 14.12610 101.01094 11008 ft 332 kts 234°
2026-05-07 11:44 14.11306 100.99141 10537 ft 330 kts 234°
2026-05-07 11:44 14.10007 100.97199 10055 ft 329 kts 234°
2026-05-07 11:45 14.08712 100.95259 9559 ft 328 kts 234°
2026-05-07 11:45 14.07418 100.93324 9033 ft 327 kts 234°
2026-05-07 11:45 14.06135 100.91406 8539 ft 323 kts 234°
2026-05-07 11:45 14.04867 100.89510 8063 ft 320 kts 234°
2026-05-07 11:46 14.03610 100.87631 7608 ft 317 kts 234°
2026-05-07 11:46 14.02360 100.85780 7132 ft 313 kts 231°
2026-05-07 11:46 14.00713 100.84374 6626 ft 308 kts 202°
2026-05-07 11:46 13.98672 100.83806 6187 ft 302 kts 191°
2026-05-07 11:47 13.96630 100.83334 5737 ft 299 kts 191°
2026-05-07 11:47 13.94616 100.82831 5284 ft 297 kts 193°
2026-05-07 11:47 13.92629 100.82305 4841 ft 295 kts 193°
2026-05-07 11:47 13.90672 100.81786 4391 ft 282 kts 193°
2026-05-07 11:48 13.88833 100.81298 3961 ft 265 kts 194°
2026-05-07 11:48 13.87102 100.80841 3582 ft 249 kts 193°
2026-05-07 11:48 13.85476 100.80410 3232 ft 234 kts 193°
2026-05-07 11:48 13.83949 100.80007 2929 ft 219 kts 193°
2026-05-07 11:49 13.82528 100.79631 2648 ft 204 kts 193°
2026-05-07 11:49 13.81201 100.79279 2389 ft 189 kts 193°
2026-05-07 11:49 13.79984 100.78958 2142 ft 173 kts 194°
2026-05-07 11:49 13.78883 100.78670 1963 ft 152 kts 195°
2026-05-07 11:50 13.77908 100.78410 1812 ft 142 kts 194°
2026-05-07 11:50 13.76956 100.78158 1594 ft 142 kts 194°
2026-05-07 11:50 13.75990 100.77904 1399 ft 144 kts 196°
2026-05-07 11:50 13.75024 100.77648 1198 ft 143 kts 196°
2026-05-07 11:51 13.74065 100.77394 1009 ft 141 kts 194°
2026-05-07 11:51 13.73113 100.77142 829 ft 140 kts 194°
2026-05-07 11:51 13.72174 100.76890 620 ft 140 kts 192°
2026-05-07 11:51 13.71220 100.76643 463 ft 143 kts 191°
2026-05-07 11:52 13.70235 100.76385 301 ft 148 kts 191°
2026-05-07 11:52 13.69250 100.76125 88 ft 144 kts 188°
2026-05-07 11:52 13.68338 100.75887 17 ft 123 kts 192°
2026-05-07 11:52 13.67651 100.75707 13 ft 80 kts 193°
2026-05-07 11:53 13.67255 100.75581 17 ft 45 kts 210°
2026-05-07 11:53 13.67106 100.75459 15 ft 15 kts 224°
2026-05-07 11:53 13.67114 100.75380 15 ft 15 kts 338°
2026-05-07 11:53 13.67221 100.75401 15 ft 17 kts 14°
2026-05-07 11:54 13.67341 100.75433 15 ft 19 kts 15°
2026-05-07 11:54 13.67470 100.75468 17 ft 20 kts 14°
2026-05-07 11:54 13.67612 100.75504 15 ft 22 kts 14°
2026-05-07 11:54 13.67765 100.75544 15 ft 24 kts 14°
2026-05-07 11:55 13.67928 100.75587 15 ft 25 kts 12°
2026-05-07 11:55 13.68104 100.75625 15 ft 27 kts 13°
2026-05-07 11:55 13.68285 100.75680 16 ft 28 kts 15°
2026-05-07 11:55 13.68475 100.75731 16 ft 29 kts 15°
2026-05-07 11:56 13.68673 100.75782 16 ft 30 kts 14°
2026-05-07 11:56 13.68873 100.75835 16 ft 29 kts 14°
2026-05-07 11:56 13.69051 100.75881 16 ft 14 kts 14°
2026-05-07 11:56 13.69114 100.75837 15 ft 13 kts 283°
2026-05-07 11:57 13.69137 100.75738 15 ft 15 kts 284°
2026-05-07 11:57 13.69171 100.75637 16 ft 13 kts 314°
2026-05-07 11:57 13.69245 100.75628 15 ft 8 kts 349°
2026-05-07 11:57 13.69268 100.75579 15 ft 9 kts 280°
2026-05-07 11:58 13.69277 100.75543 15 ft 2 kts 285°
2026-05-07 11:58 13.69277 100.75541 15 ft 0 kts 285°